Estación Meteorológica Peña el Pijo (Robertgarden) [ 07/11/20 00:52:47 CEST ]

Fecha Hora Presion(HPa) Temp (°C) Humedad % Rocio (°C) Viento ( m/s) Direccion Lluvia 1Hora(mm) Lluvia 24H(mm) LLuvia Total(mm)
2019-Dec-24 01:09:29 1017.900 - - - - WNW     39.88
2019-Dec-24 02:09:39 1017.700 - - - - WNW     39.88
2019-Dec-24 03:09:38 1018.000 - - - - WNW     39.88
2019-Dec-24 04:09:10 1017.800 - - - - WNW     39.88
2019-Dec-24 05:09:20 1017.000 - - - - WNW     39.88
2019-Dec-24 06:09:13 1017.100 - - - - WNW     39.88
2019-Dec-24 07:08:35 1017.900 - - - - WNW     39.88
2019-Dec-24 08:09:09 1018.300 - - - - WNW     39.88
2019-Dec-24 09:08:56 1018.800 - - - - WNW     39.88
2019-Dec-24 10:08:54 1019.000 - - - - WNW     39.88
2019-Dec-24 11:09:33 1019.000 - - - - WNW     39.88
2019-Dec-24 12:09:14 1018.400 - - - - WNW     39.88
2019-Dec-24 13:09:06 1017.800 - - - - WNW     39.88
2019-Dec-24 14:09:31 1016.800 - - - - WNW     39.88
2019-Dec-24 15:09:08 1016.100 - - - - WNW     39.88
2019-Dec-24 16:08:59 1016.100 - - - - WNW     39.88
2019-Dec-24 17:09:18 1016.200 - - - - WNW     39.88
2019-Dec-24 18:08:49 1016.500 - - - - WNW     39.88
2019-Dec-24 19:09:11 1017.000 - - - - WNW     39.88
2019-Dec-24 20:11:06 1017.100 - - - - WNW     39.88
2019-Dec-24 21:09:24 1017.300 - - - - WNW     39.88
2019-Dec-24 22:13:29 1017.100 - - - - WNW     39.88
2019-Dec-24 23:11:23 1017.100 - - - - WNW     39.88

Temperatura Máxima:    Temperatura Mínima:
Presión Máxima:1019.000 Hpa    Presión Mínima:1016.100 Hpa


Volver